Tracking 31027 objects as of 19-Jul-2025
HD Live streaming from Space Station
objects crossing your sky now

STARLINK-2038

Track STARLINK-2038 now!
10-day predictions
STARLINK-2038 is classified as:


NORAD ID: 47654
Int'l Code: 2021-012AL
Perigee: 277.4 km
Apogee: 291.8 km
Inclination: 53.0 °
Period: 90.1 minutes
Semi major axis: 6655 km
RCS: Unknown
Launch date: February 16, 2021
Source: United States (US)
Launch site: AIR FORCE EASTERN TEST RANGE (AFETR)
Your satellite tracking list
FLOCK 3P 17
Track 1 satellite(s)




NASA's NSSDC Master Catalog

Two Line Element Set (TLE):
1 47654U 21012AL  25199.35240875  .00765796  27670-3  15520-2 0  9992
2 47654  53.0410 326.1580 0010865 288.5557 102.3157 15.98898569245228
Source of the keplerian elements: AFSPC